DW3499 Weather Reports


time (UTC)temp
F
wind
direction
speed
knots
gust
knots
rain 1hr
in
rain 24hr
in
rain mn
in
humidity
%
barometer
mb
20260503193446 64 241 2.6 5.2 0.00 0.00 0.00 64 1013.0
20260503192924 64 255 0.9 5.2 0.00 0.00 0.00 64 1012.9
20260503192403 64 301 1.7 4.3 0.00 0.00 0.00 64 1012.9
20260503191841 64 301 1.7 4.3 0.00 0.00 0.00 64 1013.0
20260503191322 64 192 1.7 7.0 0.00 0.00 0.00 64 1013.0
20260503190802 64 231 1.7 5.2 0.00 0.00 0.00 63 1013.0
20260503190242 63 215 1.7 6.1 0.00 0.00 0.00 63 1013.0
20260503185722 63 271 0.9 5.2 0.00 0.00 0.00 63 1013.0
20260503185202 63 271 0.9 6.1 0.00 0.00 0.00 63 1013.1
20260503184642 63 256 2.6 6.1 0.00 0.00 0.00 66 1013.1
20260503184120 63 218 1.7 6.1 0.00 0.00 0.00 67 1013.1
20260503183559 63 281 1.7 7.0 0.00 0.00 0.00 67 1013.2
20260503183040 63 327 1.7 7.0 0.00 0.00 0.00 66 1013.2
20260503182520 63 243 0.9 5.2 0.00 0.00 0.00 66 1013.2
20260503181958 64 174 0.9 3.5 0.00 0.00 0.00 64 1013.2
20260503181437 64 236 2.6 6.1 0.00 0.00 0.00 63 1013.1
20260503180918 64 269 1.7 5.2 0.00 0.00 0.00 66 1013.0
20260503180356 62 250 1.7 4.3 0.00 0.00 0.00 66 1013.1
20260503175127 61 271 0.9 4.3 0.00 0.00 0.00 70 1013.1
20260503174606 61 286 0.9 2.6 0.00 0.00 0.00 71 1013.1
20260503174046 61 320 0.9 4.3 0.00 0.00 0.00 72 1013.1
20260503172818 60 263 1.7 4.3 0.00 0.00 0.00 74 1013.0
20260503171550 60 0 0.0 3.5 0.00 0.00 0.00 78 1013.1
20260503171027 59 241 0.9 2.6 0.00 0.00 0.00 79 1013.1
20260503170508 59 235 1.7 3.5 0.00 0.00 0.00 80 1013.2
20260503150912 56 242 0.9 1.7 0.00 0.00 0.00 84 1012.7
20260503150352 56 242 0.9 1.7 0.00 0.00 0.00 84 1012.7
20260503130942 55 0 0.0 0.0 0.00 0.00 0.00 83 1011.3
20260503130422 55 0 0.0 0.0 0.00 0.00 0.00 83 1011.2
20260503110638 55 0 0.0 0.0 0.00 0.00 0.00 80 1011.2
20260503110116 55 0 0.0 0.0 0.00 0.00 0.00 80 1011.3
20260503080423 55 280 0.9 1.7 0.00 0.00 0.00 79 1012.0
20260503072506 55 281 0.9 1.7 0.00 0.00 0.00 79 1012.1
20260503070529 55 287 0.9 1.7 0.00 0.00 0.00 79 1012.1
20260503060308 55 260 1.7 3.5 0.00 0.00 0.00 79 1012.3
20260503055040 55 301 0.9 1.7 0.00 0.00 0.00 79 1012.4
20260503054518 55 302 0.9 3.5 0.00 0.00 0.00 79 1012.3
20260503053958 55 240 0.9 4.3 0.00 0.00 0.00 79 1012.4
20260503053439 55 270 1.7 5.2 0.00 0.00 0.00 79 1012.4
20260503052918 56 254 0.9 3.5 0.00 0.00 0.00 79 1012.4
20260503052358 56 226 0.9 4.3 0.00 0.00 0.00 79 1012.4
20260503051836 56 279 0.9 4.3 0.00 0.00 0.00 79 1012.5
20260503051314 56 265 1.7 3.5 0.00 0.00 0.00 79 1012.5
20260503050752 56 286 0.9 5.2 0.00 0.00 0.00 79 1012.5
20260503050230 56 275 0.9 3.5 0.00 0.00 0.00 79 1012.5
20260503045710 56 286 0.9 4.3 0.00 0.00 0.00 79 1012.5
20260503045148 56 326 1.7 4.3 0.00 0.00 0.00 79 1012.4
20260503044626 56 264 0.9 3.5 0.00 0.00 0.00 79 1012.3
20260503044106 56 252 0.9 3.5 0.00 0.00 0.00 78 1012.4
20260503043544 56 340 1.7 4.3 0.00 0.00 0.00 78 1012.2
20260503043022 56 270 0.9 3.5 0.00 0.00 0.00 78 1012.3
20260503041752 56 263 1.7 4.3 0.00 0.00 0.00 78 1012.2
20260503041230 56 298 0.9 2.6 0.00 0.00 0.00 78 1012.2
20260503040708 56 246 1.7 5.2 0.00 0.00 0.00 78 1012.2
20260503040146 56 313 1.7 4.3 0.00 0.00 0.00 78 1012.1
20260503035624 56 249 0.9 3.5 0.00 0.00 0.00 78 1012.1
20260503035102 56 311 0.9 5.2 0.00 0.00 0.00 77 1012.0
20260503034543 56 273 1.7 3.5 0.00 0.00 0.00 77 1012.0
20260503034020 56 249 1.7 6.1 0.00 0.00 0.00 76 1012.0
20260503033458 56 308 0.9 6.1 0.00 0.00 0.00 76 1012.0
20260503032938 56 302 1.7 4.3 0.00 0.00 0.00 76 1012.0
20260503032416 56 276 1.7 4.3 0.00 0.00 0.00 76 1011.9
20260503031854 56 320 0.9 4.3 0.00 0.00 0.00 76 1011.9
20260503025916 57 300 2.6 4.3 0.00 0.00 0.00 75 1011.5
20260503025354 57 294 1.7 4.3 0.00 0.00 0.00 74 1011.4
20260503024125 57 270 0.9 3.5 0.00 0.00 0.00 74 1011.3
20260503023602 57 280 1.7 4.3 0.00 0.00 0.00 73 1011.3
20260503023040 57 277 1.7 5.2 0.00 0.00 0.00 73 1011.2
20260503022520 58 253 0.9 4.3 0.00 0.00 0.00 73 1011.2
20260503021958 58 274 1.7 6.1 0.00 0.00 0.00 73 1011.2
20260503021436 58 264 2.6 5.2 0.00 0.00 0.00 72 1011.2
20260503020916 58 243 1.7 5.2 0.00 0.00 0.00 72 1011.3
20260503020354 58 295 2.6 6.1 0.00 0.00 0.00 71 1011.2
20260503015832 59 262 2.6 6.1 0.00 0.00 0.00 71 1011.2
20260503015312 59 306 0.9 4.3 0.00 0.00 0.00 70 1011.3
20260503014752 59 302 2.6 6.1 0.00 0.00 0.00 70 1011.4
20260503014230 59 261 1.7 4.3 0.00 0.00 0.00 69 1011.3
20260503013710 60 278 2.6 6.1 0.00 0.00 0.00 69 1011.3
20260503012441 60 243 1.7 6.1 0.00 0.00 0.00 68 1011.4
20260503011918 61 314 1.7 6.1 0.00 0.00 0.00 68 1011.3
20260503011356 61 293 1.7 6.1 0.00 0.00 0.00 67 1011.4
20260503010836 61 220 2.6 6.1 0.00 0.00 0.00 67 1011.3
20260503010316 62 314 1.7 7.0 0.00 0.00 0.00 67 1011.4
20260503004338 62 319 1.7 6.1 0.00 0.00 0.00 67 1011.4
20260503003816 62 187 1.7 5.2 0.00 0.00 0.00 66 1011.5
20260503001840 63 282 1.7 4.3 0.00 0.00 0.00 65 1011.5
20260503001318 63 257 1.7 6.1 0.00 0.00 0.00 65 1011.5
20260503000050 63 211 1.7 6.1 0.00 0.00 0.00 65 1011.5
20260502235528 64 202 0.9 6.1 0.00 0.00 0.00 65 1011.5
20260502235006 64 272 1.7 6.1 0.00 0.00 0.00 64 1011.6
20260502234446 63 185 0.9 6.1 0.00 0.00 0.00 66 1011.5
20260502233924 63 243 2.6 6.1 0.00 0.00 0.00 66 1011.5
20260502232654 63 247 2.6 7.0 0.00 0.00 0.00 66 1011.8
20260502231424 63 228 2.6 7.8 0.00 0.00 0.00 66 1012.0
20260502230902 63 197 2.6 7.0 0.00 0.00 0.00 65 1012.1
20260502230340 63 267 3.5 7.0 0.00 0.00 0.00 65 1012.1
20260502225820 63 235 0.9 5.2 0.00 0.00 0.00 65 1012.2
20260502225300 64 238 2.6 7.0 0.00 0.00 0.00 65 1012.3
20260502224738 64 281 2.6 5.2 0.00 0.00 0.00 65 1012.4
20260502224218 64 284 1.7 5.2 0.00 0.00 0.00 65 1012.4
20260502223656 64 266 2.6 7.0 0.00 0.00 0.00 65 1012.5
20260502223134 64 286 3.5 7.0 0.00 0.00 0.00 66 1012.5
20260502221904 64 282 1.7 7.8 0.00 0.00 0.00 66 1012.8
20260502221342 64 255 1.7 7.0 0.00 0.00 0.00 66 1012.8
20260502220820 64 285 3.5 6.1 0.00 0.00 0.00 65 1012.9
20260502220258 65 241 3.5 7.0 0.00 0.00 0.00 65 1012.9
20260502215736 65 99 1.7 7.8 0.00 0.00 0.00 65 1013.0
20260502215214 64 256 1.7 6.1 0.00 0.00 0.00 66 1013.0
20260502214652 63 272 2.6 6.1 0.00 0.00 0.00 68 1013.1
20260502214130 63 239 1.7 7.8 0.00 0.00 0.00 67 1013.1
20260502213610 63 232 2.6 6.1 0.00 0.00 0.00 67 1013.1
20260502213048 63 248 3.5 8.7 0.00 0.00 0.00 67 1013.2
20260502212526 63 277 2.6 6.1 0.00 0.00 0.00 68 1013.2
20260502212004 63 264 2.6 7.0 0.00 0.00 0.00 67 1013.2
20260502210734 63 208 2.6 6.1 0.00 0.00 0.00 67 1013.3
20260502205506 63 285 1.7 5.2 0.00 0.00 0.00 67 1013.5
20260502204944 63 252 2.6 7.0 0.00 0.00 0.00 67 1013.6
20260502204422 63 273 1.7 5.2 0.00 0.00 0.00 68 1013.6
20260502203900 63 204 3.5 7.8 0.00 0.00 0.00 67 1013.7
20260502201922 63 260 2.6 6.1 0.00 0.00 0.00 68 1013.9
20260502201402 63 296 2.6 5.2 0.00 0.00 0.00 71 1014.0
20260502200840 62 206 1.7 10.4 0.00 0.00 0.00 70 1014.1
20260502200318 62 288 2.6 7.0 0.00 0.00 0.00 71 1014.1
20260502195756 61 261 2.6 6.1 0.00 0.00 0.00 73 1014.1
20260502194526 61 203 2.6 5.2 0.00 0.00 0.00 74 1014.3
20260502194006 61 281 2.6 6.1 0.00 0.00 0.00 76 1014.2